CZ-2D DEB, 43403

Orbit data source: Space-Track

CZ-2D DEB, 43403 is space debris in SSO originally from a launch on Sat, 29 Sep 2012 UTC launched from the Jiuquan Satellite Launch Center, China (JSC). Debris objects in space refer to the collection of defunct objects orbiting the Earth. Examples of debris include non-operational satellites, rocket bodies, and fragments generated from explosions, collisions, or faulty payload assembly.

Loading next visibility...
Identifier
43403, 2012-052C
Orbit
SSO
Last TLE update
2 days ago
Origin
Manufacturer
SAST
Mission
Spacecraft
Bus & Motor
Unknown
Mass
Unknown
Launch date (UTC)
2012-09-29 (13 years ago)
Launch vehicle
Unknown
Launch site
Jiuquan Satellite Launch Center, China (JSC)
Object type
Payload
Rocket body
Debris
Shape & HBR
Unknown
Radar Cross Section
Small (<0.1 m²)

Expand to show TLE details & history

TLE from 2 days ago
0 CZ-2D DEB
1 43403U 12052C   25185.11466012  .00001203  00000-0  31678-3 0  9990
2 43403  98.0216 291.9808 0193663 276.7399  81.1787 14.40286082606155
Epoch: 2025-07-04T02:45Z
TLE epoch observation values (Epoch: 2025-07-04T02:45:06.634Z)
Latitude
-0.00004°
Longitude
-31.66853°
Altitude
741.947 km
Speed
7.494 km/s
True Right ascension
19h 27m 55s
True Declination
0° 00' 00"
Sunlit
Object was in full shadow at epoch
Visualization orbit readout
Latitude
0.59519°
Longitude
-30.0576°
Altitude
756.45 km
Speed
7.478 km/s
Apparent Right ascension
20h 34m 09s
Apparent Declination
-19° 16' 15"
Sunlit
Object is in full shadow
Visualization observer readout
Local Sidereal Time
10:02:24
Azimuth
49.002° ENE
Elevation
-61.977°
Doppler factor
1
Orbital elements
Apogee altitude
892.787 km
Perigee altitude
616.516 km
Semi-major axis
7,132.788 km
Eccentricity
0.01937
Inclination
98.0216°
RAAN
291.9808°
Arg. of periapsis
276.7399°
True anomaly
Unknown
Mean anomaly
81.1787°
Eccentric anomaly
Unknown
Mean motion
3.60292 °/min
Orbital period
99.92 mins
BSTAR
0.00031678
Loading maneuver chart data...
Loading SW <> Apogee altitude chart data...
Loading historical data...
Loading historical data...
Loading historical data...
Loading historical data...
Loading historical data...
Loading historical data...
Loading historical data...
Other satellites on launch #52 in the year 2012 (2012-09-29 UTC)

CZ-2D DEB Visibility forecast

Observer location: undefined°, undefined°

Span
Click to sort rows by Start time (UTC) header in descending order
Start Az.
Max El. time (UTC)
Max El. Az.
Max El.
End time (UTC)
End Az.
10 mins2025-07-06 06:33:16.487Z141.335° SSE2025-07-06 06:38:16.487Z66.743° ENE35.609°2025-07-06 06:43:16.487Z0.28° NNE
7 mins2025-07-06 08:14:16.487Z226.868° WSW2025-07-06 08:17:16.487Z268.881° W21.462°2025-07-06 08:21:16.487Z317.394° NNW
5 mins2025-07-06 18:45:16.487Z68.805° E2025-07-06 18:47:16.487Z95.184° ESE16.765°2025-07-06 18:50:16.487Z130.164° SE
9 mins2025-07-06 20:22:16.487Z0.738° NNE2025-07-06 20:26:16.487Z281.58° WNW40.668°2025-07-06 20:31:16.487Z209.196° SW
|